TimePST,TemperatureF,Dew PointF,Humidity,Sea Level PressureIn,VisibilityMPH,Wind Direction,Wind SpeedMPH,Gust SpeedMPH,PrecipitationIn,Events,Conditions,WindDirDegrees,DateUTC
12:00 AM,55.4,53.6,94,30.27,10.0,SSW,10.4,-,N/A,,Overcast,210,2012-11-05 08:00:00
1:00 AM,51.8,50.0,94,30.30,10.0,South,6.9,-,N/A,,Overcast,190,2012-11-05 09:00:00
2:00 AM,51.8,48.2,88,30.33,10.0,South,6.9,-,N/A,,Overcast,180,2012-11-05 10:00:00
3:00 AM,50.0,48.2,94,30.34,10.0,SSW,6.9,-,N/A,,Overcast,210,2012-11-05 11:00:00
4:00 AM,50,47,86,30.35,10,SSW,4.6,,,,Partly Cloudy,200,2012-11-05 12:00:00
4:00 AM,50.0,46.4,87,30.35,10.0,SSW,4.6,-,N/A,,Mostly Cloudy,200,2012-11-05 12:00:00
5:00 AM,50.0,46.4,87,30.36,10.0,Calm,Calm,-,N/A,,Mostly Cloudy,0,2012-11-05 13:00:00
6:00 AM,48.2,46.4,93,30.38,10.0,SSW,2.3,-,N/A,,Mostly Cloudy,210,2012-11-05 14:00:00
7:00 AM,46.4,46.4,100,30.37,30.0,Calm,Calm,-,N/A,Fog,Shallow Fog,0,2012-11-05 15:00:00
8:00 AM,44.6,44.6,100,30.39,30.0,Calm,Calm,-,N/A,Fog,Shallow Fog,0,2012-11-05 16:00:00
9:00 AM,50.0,46.4,87,30.39,30.0,Calm,Calm,-,N/A,,Mostly Cloudy,0,2012-11-05 17:00:00
10:00 AM,52,48,80,30.39,28,South,3.5,,,,Scattered Clouds,190,2012-11-05 18:00:00
10:00 AM,51.8,48.2,88,30.39,30.0,SSW,3.5,-,N/A,,Mostly Cloudy,200,2012-11-05 18:00:00
11:00 AM,53.6,46.4,77,30.38,30.0,Calm,Calm,-,N/A,,Mostly Cloudy,0,2012-11-05 19:00:00
12:00 PM,55.4,44.6,67,30.38,30.0,SW,3.5,-,N/A,,Mostly Cloudy,230,2012-11-05 20:00:00
1:00 PM,57.2,46.4,67,30.38,30.0,WSW,5.8,-,N/A,,Mostly Cloudy,240,2012-11-05 21:00:00
2:00 PM,55.4,46.4,72,30.37,30.0,SW,3.5,-,N/A,,Mostly Cloudy,220,2012-11-05 22:00:00
3:00 PM,55.4,44.6,67,30.35,20.0,WSW,4.6,-,N/A,,Mostly Cloudy,240,2012-11-05 23:00:00
4:00 PM,53,46,70,30.36,28,WSW,4.6,,,,Scattered Clouds,240,2012-11-06 00:00:00
4:00 PM,53.6,46.4,77,30.36,30.0,SW,5.8,-,N/A,,Mostly Cloudy,230,2012-11-06 00:00:00
5:00 PM,50.0,46.4,87,30.34,20.0,SSW,4.6,-,N/A,,Mostly Cloudy,210,2012-11-06 01:00:00
6:00 PM,50.0,46.4,87,30.32,15.0,ENE,2.3,-,N/A,,Mostly Cloudy,70,2012-11-06 02:00:00
7:00 PM,50.0,46.4,87,30.29,15.0,Calm,Calm,-,N/A,,Mostly Cloudy,0,2012-11-06 03:00:00
8:00 PM,50.0,46.4,87,30.27,10.0,NNE,4.6,-,N/A,,Overcast,30,2012-11-06 04:00:00
9:00 PM,48.2,46.4,93,30.24,10.0,NNE,4.6,-,N/A,,Overcast,30,2012-11-06 05:00:00
10:00 PM,48,46,88,30.22,10,NNE,5.8,,,,Mostly Cloudy,20,2012-11-06 06:00:00
10:00 PM,48.2,46.4,93,30.22,10.0,NNE,4.6,-,N/A,,Mostly Cloudy,20,2012-11-06 06:00:00
11:00 PM,48.2,46.4,93,30.20,10.0,ENE,5.8,-,N/A,,Mostly Cloudy,60,2012-11-06 07:00:00